Location: Newark
(15.4608°S, 41.1635°W)
Time: 00:41:58
(UTC+00:00)

deb Explorer IX - All Passes

Search period start: 31 July 2021 00:00
Search period end: 10 August 2021 00:00
Orbit: 544 x 1093 km, 38.8° (Epoch: 30 July)

Date Brightness Start Highest point End Pass type
(mag) Time Alt. Az. Time Alt. Az. Time Alt. Az.
31 Jul - 01:21:08 10° NW 01:28:19 72° NE 01:34:52 10° ESE night (unlit)
31 Jul - 03:09:55 10° W 03:15:41 28° SSW 03:20:55 10° SSE night (unlit)
31 Jul - 10:25:21 10° SW 10:29:34 50° SE 10:33:32 10° ENE daylight
31 Jul - 12:13:33 10° W 12:15:58 15° NW 12:18:23 10° N daylight
31 Jul - 23:13:00 10° N 23:16:54 15° NE 23:20:45 10° ENE visible
01 Aug - 00:56:50 10° NW 01:04:03 72° NE 01:10:46 10° ESE night (unlit)
01 Aug - 02:45:34 10° W 02:51:29 29° SSW 02:56:54 10° SSE night (unlit)
01 Aug - 10:01:15 10° SW 10:05:34 50° SE 10:09:34 10° ENE daylight
01 Aug - 11:49:32 10° W 11:51:57 15° NW 11:54:22 10° N daylight
01 Aug - 22:48:46 10° N 22:52:39 15° NE 22:56:32 10° ENE visible
02 Aug - 00:32:33 10° NW 00:39:48 72° NE 00:46:38 10° ESE visible
02 Aug - 02:21:13 10° W 02:27:17 30° SSW 02:32:52 10° SSE night (unlit)
02 Aug - 07:52:59 10° S 07:53:58 11° SSE 07:54:56 10° SSE visible
02 Aug - 09:37:07 10° SW 09:41:34 51° SE 09:45:36 10° ENE daylight
02 Aug - 11:25:27 10° W 11:27:56 15° NW 11:30:22 10° N daylight
02 Aug - 22:24:33 10° N 22:28:25 15° NE 22:32:16 10° ENE visible
03 Aug - 00:08:15 10° NW 00:15:30 72° NE 00:22:28 10° ESE visible
03 Aug - 01:56:52 10° W 02:03:02 30° SSW 02:08:46 10° SSE night (unlit)
03 Aug - 07:28:24 10° S 07:29:53 11° SSE 07:31:20 10° SE visible
03 Aug - 09:12:57 10° SW 09:17:32 52° SE 09:21:38 10° ENE daylight
03 Aug - 11:01:20 10° W 11:03:54 16° NW 11:06:23 10° N daylight
03 Aug - 22:00:21 10° NNE 22:04:09 15° NE 22:07:58 10° ENE visible
03 Aug - 23:43:58 10° NW 23:51:12 72° NE 23:58:16 10° ESE visible
04 Aug - 01:32:31 10° W 01:38:46 31° SSW 01:44:40 10° SSE night (unlit)
04 Aug - 03:26:43 10° SSW 03:27:18 10° SSW 03:27:54 10° SSW night (unlit)
04 Aug - 07:03:53 10° S 07:05:48 12° SSE 07:07:37 10° SE visible
04 Aug - 08:48:45 10° SW 08:53:29 52° SE 08:57:40 10° ENE daylight
04 Aug - 10:37:11 10° W 10:39:51 16° NW 10:42:25 10° N daylight
04 Aug - 21:36:11 10° NNE 21:39:52 15° NE 21:43:38 10° ENE visible
04 Aug - 23:19:42 10° NW 23:26:53 71° NE 23:34:02 10° ESE visible
05 Aug - 01:08:10 10° W 01:14:29 32° SSW 01:20:31 10° SSE night (unlit)
05 Aug - 03:01:41 10° SSW 03:03:05 11° SSW 03:04:27 10° S night (unlit)
05 Aug - 06:39:24 10° S 06:41:40 13° SSE 06:43:50 10° SE visible
05 Aug - 08:24:30 10° SW 08:29:25 53° SE 08:33:42 10° ENE visible
05 Aug - 10:12:59 10° W 10:15:47 16° NW 10:18:27 10° N daylight
05 Aug - 21:12:02 10° NNE 21:15:36 14° NE 21:19:15 10° ENE visible
05 Aug - 22:55:26 10° NW 23:02:33 71° NE 23:09:46 10° ESE visible
06 Aug - 00:43:49 10° W 00:50:11 32° SSW 00:56:20 10° SSE visible
06 Aug - 02:36:58 10° SSW 02:38:50 11° SSW 02:40:40 10° S night (unlit)
06 Aug - 06:14:54 10° S 06:17:32 13° SSE 06:19:59 10° SE visible
06 Aug - 08:00:14 10° SW 08:05:20 54° SE 08:09:43 10° ENE visible
06 Aug - 09:48:44 10° W 09:51:42 17° NW 09:54:30 10° N daylight
06 Aug - 20:47:55 10° NNE 20:51:19 14° NE 20:54:49 10° ENE visible
06 Aug - 22:31:11 10° NW 22:38:13 71° NE 22:45:29 10° ESE visible
07 Aug - 00:19:29 10° W 00:25:52 32° SSW 00:32:07 10° SSE visible
07 Aug - 02:12:21 10° SW 02:14:34 11° SSW 02:16:44 10° S night (unlit)
07 Aug - 05:50:25 10° S 05:53:21 14° SSE 05:56:06 10° SE visible
07 Aug - 07:35:57 10° SW 07:41:13 55° SE 07:45:44 10° ENE visible
07 Aug - 09:24:27 10° W 09:27:37 18° NW 09:30:33 10° N daylight
07 Aug - 20:23:50 10° NNE 20:27:01 14° NE 20:30:21 10° ENE daylight
07 Aug - 22:06:56 10° NW 22:13:53 70° NE 22:21:09 10° ESE visible
07 Aug - 23:55:10 10° W 00:01:31 32° SSW 00:07:52 10° SSE visible
08 Aug - 01:47:48 10° SW 01:50:17 12° SSW 01:52:43 10° S night (unlit)
08 Aug - 05:25:55 10° SSW 05:29:11 15° SSE 05:32:11 10° SE visible
08 Aug - 07:11:36 10° SW 07:17:05 56° SE 07:21:43 10° ENE visible
08 Aug - 09:00:08 10° W 09:03:30 18° NW 09:06:36 10° N daylight
08 Aug - 19:59:46 10° NNE 20:02:45 13° NE 20:05:50 10° ENE daylight
08 Aug - 21:42:43 10° NW 21:49:32 70° NE 21:56:48 10° ESE visible
08 Aug - 23:30:51 10° W 23:37:11 33° SSW 23:43:34 10° SSE visible
09 Aug - 01:23:18 10° SW 01:25:58 12° SSW 01:28:37 10° S night (unlit)
09 Aug - 05:01:26 10° SSW 05:04:57 15° SSE 05:08:13 10° SE night (unlit)
09 Aug - 06:47:14 10° SW 06:52:55 57° SE 06:57:42 10° ENE visible
09 Aug - 08:35:47 10° W 08:39:22 19° NW 08:42:38 10° N visible
09 Aug - 19:35:45 10° NNE 19:38:27 13° NE 19:41:16 10° ENE daylight
09 Aug - 21:18:29 10° NW 21:25:11 69° NE 21:32:25 10° ESE visible
09 Aug - 23:06:32 10° W 23:12:49 33° SSW 23:19:15 10° SSE visible
